TimeCDT,TemperatureF,Dew PointF,Humidity,Sea Level PressureIn,VisibilityMPH,Wind Direction,Wind SpeedMPH,Gust SpeedMPH,PrecipitationIn,Events,Conditions,WindDirDegrees,DateUTC
12:15 AM,60.8,48.2,63,29.78,10.0,SSW,3.5,-,N/A,,Clear,210,2013-05-14 05:15:00
12:35 AM,60.8,48.2,63,29.78,10.0,SSW,3.5,-,N/A,,Clear,210,2013-05-14 05:35:00
12:55 AM,60.8,48.2,63,29.78,10.0,SSW,4.6,-,N/A,,Clear,200,2013-05-14 05:55:00
1:15 AM,60.8,50.0,68,29.77,10.0,South,5.8,-,N/A,,Clear,190,2013-05-14 06:15:00
1:35 AM,60.8,50.0,68,29.77,10.0,SSW,5.8,-,N/A,,Clear,210,2013-05-14 06:35:00
1:55 AM,59.0,50.0,72,29.77,10.0,SSW,3.5,-,N/A,,Clear,200,2013-05-14 06:55:00
2:15 AM,60.8,51.8,72,29.76,10.0,SSW,4.6,-,N/A,,Clear,200,2013-05-14 07:15:00
2:35 AM,57.2,50.0,77,29.76,10.0,Calm,Calm,-,N/A,,Clear,0,2013-05-14 07:35:00
2:55 AM,60.8,51.8,72,29.76,10.0,South,3.5,-,N/A,,Clear,190,2013-05-14 07:55:00
3:15 AM,60.8,51.8,72,29.75,10.0,South,3.5,-,N/A,,Clear,180,2013-05-14 08:15:00
3:35 AM,60.8,51.8,72,29.75,10.0,South,3.5,-,N/A,,Clear,190,2013-05-14 08:35:00
3:55 AM,60.8,51.8,72,29.75,10.0,South,3.5,-,N/A,,Clear,180,2013-05-14 08:55:00
4:15 AM,57.2,51.8,82,29.75,10.0,South,3.5,-,N/A,,Clear,190,2013-05-14 09:15:00
4:35 AM,59.0,51.8,77,29.75,10.0,Calm,Calm,-,N/A,,Clear,0,2013-05-14 09:35:00
4:55 AM,57.2,50.0,77,29.74,10.0,South,3.5,-,N/A,,Clear,190,2013-05-14 09:55:00
5:15 AM,57.2,51.8,82,29.74,10.0,South,4.6,-,N/A,,Clear,180,2013-05-14 10:15:00
5:35 AM,57.2,50.0,77,29.74,10.0,South,4.6,-,N/A,,Clear,170,2013-05-14 10:35:00
5:55 AM,57.2,50.0,77,29.73,10.0,Calm,Calm,-,N/A,,Clear,0,2013-05-14 10:55:00
6:15 AM,55.4,48.2,77,29.73,10.0,South,4.6,-,N/A,,Clear,190,2013-05-14 11:15:00
6:35 AM,57.2,51.8,82,29.72,10.0,South,3.5,-,N/A,,Clear,190,2013-05-14 11:35:00
6:55 AM,57.2,51.8,82,29.72,10.0,South,4.6,-,N/A,,Clear,190,2013-05-14 11:55:00
7:15 AM,60.8,53.6,77,29.72,10.0,Calm,Calm,-,N/A,,Clear,0,2013-05-14 12:15:00
7:35 AM,62.6,53.6,72,29.72,10.0,SW,5.8,-,N/A,,Clear,220,2013-05-14 12:35:00
7:55 AM,64.4,53.6,68,29.72,10.0,SW,3.5,-,N/A,,Clear,220,2013-05-14 12:55:00
8:15 AM,69.8,55.4,60,29.70,10.0,South,9.2,-,N/A,,Clear,180,2013-05-14 13:15:00
8:35 AM,71.6,53.6,53,29.70,10.0,South,10.4,-,N/A,,Clear,190,2013-05-14 13:35:00
8:55 AM,73.4,53.6,50,29.69,10.0,SSW,11.5,-,N/A,,Clear,200,2013-05-14 13:55:00
9:15 AM,75.2,53.6,47,29.68,10.0,SSW,11.5,16.1,N/A,,Clear,200,2013-05-14 14:15:00
9:35 AM,78.8,51.8,39,29.67,10.0,SSW,12.7,-,N/A,,Clear,210,2013-05-14 14:35:00
9:55 AM,78.8,53.6,42,29.66,10.0,SSW,12.7,-,N/A,,Clear,200,2013-05-14 14:55:00
10:15 AM,82.4,51.8,35,29.65,10.0,SSW,15.0,-,N/A,,Clear,210,2013-05-14 15:15:00
10:35 AM,82.4,51.8,35,29.63,10.0,SSW,13.8,-,N/A,,Clear,200,2013-05-14 15:35:00
10:55 AM,86.0,51.8,31,29.63,10.0,SSW,13.8,23.0,N/A,,Clear,210,2013-05-14 15:55:00
11:15 AM,87.8,50.0,27,29.62,10.0,SSW,19.6,25.3,N/A,,Clear,210,2013-05-14 16:15:00
11:35 AM,91.4,48.2,23,29.62,10.0,SW,19.6,23.0,N/A,,Clear,220,2013-05-14 16:35:00
11:55 AM,93.2,46.4,20,29.62,10.0,SW,16.1,25.3,N/A,,Clear,220,2013-05-14 16:55:00
12:15 PM,96.8,44.6,17,29.61,10.0,WSW,18.4,21.9,N/A,,Clear,240,2013-05-14 17:15:00
12:35 PM,100.4,39.2,12,29.60,10.0,SSW,15.0,24.2,N/A,,Clear,210,2013-05-14 17:35:00
12:55 PM,100.4,33.8,10,29.59,10.0,WSW,20.7,27.6,N/A,,Clear,240,2013-05-14 17:55:00
1:15 PM,100.4,33.8,10,29.59,10.0,WSW,19.6,32.2,N/A,,Clear,250,2013-05-14 18:15:00
1:35 PM,100.4,33.8,10,29.58,10.0,West,20.7,31.1,N/A,,Clear,260,2013-05-14 18:35:00
1:55 PM,98.6,37.4,12,29.58,10.0,WNW,18.4,31.1,N/A,,Clear,300,2013-05-14 18:55:00
2:15 PM,96.8,39.2,14,29.59,10.0,NW,23.0,29.9,N/A,,Clear,310,2013-05-14 19:15:00
2:35 PM,100.4,35.6,11,29.59,10.0,WNW,21.9,31.1,N/A,,Clear,300,2013-05-14 19:35:00
2:55 PM,96.8,37.4,13,29.60,10.0,NW,18.4,29.9,N/A,,Clear,310,2013-05-14 19:55:00
3:15 PM,96.8,37.4,13,29.60,10.0,NW,20.7,25.3,N/A,,Clear,320,2013-05-14 20:15:00
3:35 PM,96.8,35.6,12,29.60,10.0,NW,17.3,23.0,N/A,,Clear,320,2013-05-14 20:35:00
3:55 PM,98.6,37.4,12,29.60,10.0,NW,20.7,25.3,N/A,,Clear,310,2013-05-14 20:55:00
4:15 PM,98.6,37.4,12,29.60,10.0,NW,16.1,25.3,N/A,,Clear,310,2013-05-14 21:15:00
4:35 PM,96.8,39.2,14,29.60,10.0,NNW,15.0,23.0,N/A,,Clear,340,2013-05-14 21:35:00
4:55 PM,96.8,39.2,14,29.60,10.0,NNW,19.6,24.2,N/A,,Clear,340,2013-05-14 21:55:00
5:15 PM,96.8,37.4,13,29.61,10.0,NNW,17.3,26.5,N/A,,Clear,340,2013-05-14 22:15:00
5:35 PM,96.8,37.4,13,29.61,10.0,North,15.0,20.7,N/A,,Clear,350,2013-05-14 22:35:00
5:55 PM,95.0,37.4,13,29.61,10.0,North,18.4,24.2,N/A,,Clear,360,2013-05-14 22:55:00
6:15 PM,93.2,37.4,14,29.62,10.0,North,19.6,25.3,N/A,,Clear,360,2013-05-14 23:15:00
6:35 PM,91.4,37.4,15,29.63,10.0,North,16.1,24.2,N/A,,Clear,360,2013-05-14 23:35:00
6:55 PM,89.6,37.4,16,29.64,10.0,North,19.6,27.6,N/A,,Clear,360,2013-05-14 23:55:00
7:15 PM,87.8,37.4,17,29.65,10.0,North,23.0,-,N/A,,Clear,360,2013-05-15 00:15:00
7:35 PM,87.8,33.8,15,29.66,10.0,North,16.1,26.5,N/A,,Clear,350,2013-05-15 00:35:00
7:55 PM,84.2,32.0,15,29.67,10.0,North,16.1,24.2,N/A,,Clear,350,2013-05-15 00:55:00
8:15 PM,82.4,33.8,17,29.68,10.0,North,15.0,20.7,N/A,,Clear,360,2013-05-15 01:15:00
8:35 PM,80.6,32.0,17,29.69,10.0,North,10.4,-,N/A,,Clear,350,2013-05-15 01:35:00
8:55 PM,78.8,30.2,17,29.71,10.0,North,10.4,-,N/A,,Clear,350,2013-05-15 01:55:00
9:15 PM,75.2,30.2,19,29.72,10.0,North,9.2,-,N/A,,Clear,350,2013-05-15 02:15:00
9:35 PM,73.4,32.0,22,29.74,10.0,North,5.8,-,N/A,,Clear,350,2013-05-15 02:35:00
9:55 PM,73.4,32.0,22,29.75,10.0,North,4.6,-,N/A,,Clear,360,2013-05-15 02:55:00
10:15 PM,71.6,33.8,25,29.75,10.0,North,4.6,-,N/A,,Clear,10,2013-05-15 03:15:00
10:35 PM,69.8,35.6,28,29.76,10.0,North,4.6,-,N/A,,Clear,360,2013-05-15 03:35:00
10:55 PM,66.2,35.6,32,29.76,10.0,North,4.6,-,N/A,,Clear,360,2013-05-15 03:55:00
11:15 PM,68.0,35.6,30,29.77,10.0,NE,3.5,-,N/A,,Clear,40,2013-05-15 04:15:00
11:35 PM,66.2,33.8,30,29.78,10.0,Calm,Calm,-,N/A,,Clear,0,2013-05-15 04:35:00
11:55 PM,62.6,35.6,37,29.79,10.0,Calm,Calm,-,N/A,,Clear,0,2013-05-15 04:55:00